{"data":{"norad_id":67683,"intl_designator":"1998-067XZ","name":"KNACKSAT-2","alt_names":[],"object_type":"PAYLOAD","status":"ACTIVE","operator":null,"country":"THAI","launch_date":"1998-11-20","launch_site_code":"TYMSC","launch_vehicle":null,"mission":null,"orbit_class":"UNKNOWN","rcs_meters":null,"size_class":null,"mass_kg":null,"dimensions":null,"purposes":["comms","station","tech_demo"],"wikipedia_slug":null,"has_3d_model":false,"image_url":null,"decayed_at":null,"tle_current":{"epoch":"2026-09-19T06:06:44.949024Z","epoch_age_seconds":121976,"freshness":"FRESH","line1":"1 67683U 98067XZ  26262.25468691  .00061304  00000+0  51271-3 0  9991","line2":"2 67683  51.6237 178.1756 0008279 181.0467 179.0514 15.69367004 35000","mean_motion":15.69367004,"eccentricity":0.0008279,"inclination_deg":51.6237,"raan_deg":178.1756,"arg_perigee_deg":181.0467,"mean_anomaly_deg":179.0514,"bstar":0.00051271,"rev_number":3500,"period_min":91.756739904033,"perigee_km":355.12936229105,"apogee_km":366.2875425912,"semimajor_km":6738.8454524411,"source":"CELESTRAK","updated_at":"2026-09-20T09:00:48.040693Z"}}}